This demonstration page uses our WeatherBlox Daily Observations layout. Learn more.

Left ArrowRight Arrow

41.55636, -103.73856

Hourly Observations for July 2, 2022

Temp ( °F °C ) Dew Point ( °F °C ) Humidity (%) Winds ( mph kmh ) Pressure ( in mb ) Visibility ( mi km ) Precip ( " mm )
12:58 am 00:58 Mostly Clear 61 16.3 56 13.4 83 83 SSE 10 17 29.91 1013 10 16 0.00 0.00
1:58 am 01:58 Clear 61 16 56 13.1 83 83 SE 6 9 29.91 1013 10 16 0.00 0.00
2:58 am 02:58 Clear 58 14.2 54 12.4 89 89 S 5 7 29.90 1013 10 16 0.00 0.00
3:58 am 03:58 Clear 55 12.7 52 11.3 91 91 SSW 9 15 29.89 1012 10 16 0.00 0.00
4:58 am 04:58 Clear 55 12.6 52 11.2 91 91 E 13 20 29.93 1014 10 16 0.00 0.00
6:58 am 06:58 Sunny 61 15.9 54 12.3 79 79 S 13 20 29.94 1014 10 16 0.00 0.00
7:58 am 07:58 Sunny 64 18 57 13.9 77 77 S 18 30 29.95 1014 10 16 0.00 0.00
8:58 am 08:58 Sunny 68 20.1 57 14 68 68 SSW 16 26 29.96 1015 10 16 0.00 0.00
9:58 am 09:58 Sunny 71 21.7 57 14.1 62 62 SW 16 26 29.96 1015 10 16 0.00 0.00
10:58 am 10:58 Sunny 77 25 51 10.8 41 41 W 7 11 29.94 1014 10 16 0.00 0.00
11:58 am 11:58 Sunny 79 26.3 50 10 36 36 S 5 7 29.93 1014 10 16 0.00 0.00
12:58 pm 12:58 Sunny 83 28.6 47 8.3 28 28 SE 5 7 29.90 1013 10 16 0.00 0.00
1:58 pm 13:58 Sunny 85 29.7 47 8.1 26 26 SE 8 13 29.88 1012 10 16 0.00 0.00
2:58 pm 14:58 Mostly Sunny 87 30.8 44 6.6 22 22 Calm 29.86 1011 10 16 0.00 0.00
3:58 pm 15:58 Mostly Cloudy 88 31.3 46 7.7 23 23 E 12 19 29.85 1011 10 16 0.00 0.00
4:58 pm 16:58 Partly Cloudy 86 29.8 46 7.6 25 25 SE 12 19 29.85 1011 10 16 0.00 0.00
5:58 pm 17:58 Partly Cloudy with Nearby Thunderstorms 84 28.8 47 8.5 28 28 SSE 16 26 29.84 1011 10 16 0.00 0.00
6:58 pm 18:58 Mostly Sunny 82 27.6 41 5.2 24 24 SSW 16 26 29.83 1010 10 16 0.00 0.00
7:58 pm 19:58 Sunny 81 27.1 38 3.5 22 22 S 16 26 29.81 1009 10 16 0.00 0.00
8:58 pm 20:58 Clear 75 24 44 6.7 33 33 SSE 15 24 29.83 1010 10 16 0.00 0.00
9:58 pm 21:58 Clear 73 23 47 8.3 39 39 SSE 15 24 29.85 1011 10 16 0.00 0.00
10:58 pm 22:58 Clear 74 23.2 55 12.5 51 51 SSE 24 39 29.83 1010 10 16 0.00 0.00
11:58 pm 23:58 Mostly Cloudy 73 22.5 58 14.3 60 60 SSE 28 44 29.82 1010 10 16 0.00 0.00

Powered by AerisWeather